This is the latest recevied weather packets stored in our database for station/object K7CTM. If no packets are shown the sender has not sent any weather packets the latest 10 day(s).
| Time | Temp. | Humidity | Pressure | Rain* | Wind** | Luminosity | Snow |
|---|---|---|---|---|---|---|---|
| 1777782378 | 11.11° C | 54% | 1026.9 hPa | 0 mm | - | 0 W/m² | - |
| 1777782074 | 10.56° C | 56% | 1026.9 hPa | 0 mm | - | 0 W/m² | - |
| 1777781771 | 11.11° C | 56% | 1027.1 hPa | 0 mm | - | 0 W/m² | - |
| 1777781469 | 11.67° C | 54% | 1027.1 hPa | 0 mm | - | 0 W/m² | - |
| 1777781166 | 11.67° C | 53% | 1027.2 hPa | 0 mm | - | 0 W/m² | - |
| 1777780864 | 12.22° C | 53% | 1027 hPa | 0 mm | - | 0 W/m² | - |
| 1777780560 | 12.22° C | 52% | 1027 hPa | 0 mm | - | 0 W/m² | - |
| 1777780258 | 12.22° C | 52% | 1027 hPa | 0 mm | - | 0 W/m² | - |
| 1777779955 | 12.22° C | 51% | 1026.9 hPa | 0 mm | - | 0 W/m² | - |
| 1777779652 | 12.22° C | 51% | 1026.8 hPa | 0 mm | - | 0 W/m² | - |
| 1777779349 | 12.22° C | 52% | 1026.8 hPa | 0 mm | - | 0 W/m² | - |
| 1777779047 | 12.22° C | 52% | 1026.8 hPa | 0 mm | - | 0 W/m² | - |
| 1777778745 | 12.22° C | 52% | 1026.4 hPa | 0 mm | - | 0 W/m² | - |
| 1777778443 | 12.78° C | 52% | 1026.4 hPa | 0 mm | - | 0 W/m² | - |
| 1777778140 | 12.22° C | 52% | 1026.2 hPa | 0 mm | - | 0 W/m² | - |
| 1777777837 | 12.78° C | 52% | 1026.1 hPa | 0 mm | - | 0 W/m² | - |
| 1777777533 | 12.78° C | 51% | 1026.1 hPa | 0 mm | - | 0 W/m² | - |
| 1777777231 | 13.33° C | 51% | 1026.1 hPa | 0 mm | - | 0 W/m² | - |
| 1777776927 | 13.33° C | 50% | 1026.1 hPa | 0 mm | - | 0 W/m² | - |
| 1777776626 | 13.33° C | 50% | 1026 hPa | 0 mm | - | 0 W/m² | - |
| 1777776321 | 13.33° C | 50% | 1026.1 hPa | 0 mm | - | 0 W/m² | - |
| 1777776019 | 13.89° C | 50% | 1025.8 hPa | 0 mm | - | 1 W/m² | - |
| 1777775715 | 13.89° C | 50% | 1025.8 hPa | 0 mm | - | 1 W/m² | - |
| 1777775413 | 13.89° C | 49% | 1025.4 hPa | 0 mm | - | 2 W/m² | - |
| 1777775108 | 14.44° C | 48% | 1025.4 hPa | 0 mm | - | 3 W/m² | - |
* Rain latest hour (hover to see other rain measurements)
** Current wind speed in m/s (hover to see current wind gust speed)